Flag Weather past 2 weeks in Ashdod, Israel

Now
61 °F

Clear.


Feels Like: 61 °F
Forecast: 65 / 70 °F
Wind: 2 mph from North

Location: Ben Gurion International Airport

Current Time: Nov 21, 2014 at 4:36:01 AM

Latest Report: Nov 21, 2014 at 4:20 AM


Visibility: 10 mi

Pressure: 29.92 "Hg

Humidity: 83%

Dew point: 55 °F

Location of AshdodLocation

Historic Weather in Ashdod — Graph

°F

Ashdod temperature yesterday

Maximum temperature yesterday: 81 °F (at 11:20 AM)
Minimum temperature yesterday: 59 °F (at 5:20 AM)
Average temperature yesterday: 69 °F

Past Weeks' High & Low Weather Summary

 TemperatureHumidityPressure
High86 °F (Nov 9, 11:20 AM)94% (Nov 16, 5:50 AM)30.24 "Hg (Nov 16, 5:50 AM)
Low54 °F (Nov 19, 6:20 AM)11% (Nov 8, 9:50 AM)29.86 "Hg (Nov 14, 1:20 PM)
Average68 °F59%30.03 "Hg
* Reported Nov 6 3:20 AM — Nov 21 3:20 AM, Ashdod, Weather by CustomWeather, © 2014

Note: Actual official high and low records may vary slightly from our data, if they occured in-between our weather recording intervals... More about our weather records

Advertising

Ashdod weather history for previous 24 hours

 ConditionsComfort  
Time TempWeatherWind HumidityBarometerVisibility
3:20 AM
Nov 21
61 °FClear.2 mph77%29.95 "Hg10 mi
2:50 AM61 °FClear.2 mph77%29.95 "Hg10 mi
2:20 AM61 °FClear.2 mph77%29.95 "Hg10 mi
1:50 AM61 °FClear.2 mph77%29.95 "Hg10 mi
1:20 AM61 °FClear.2 mph77%29.95 "Hg10 mi
12:50 AM63 °FClear.3 mph73%29.95 "Hg10 mi
12:20 AM61 °FClear.6 mph77%29.95 "Hg10 mi
11:50 PM
Nov 20
63 °FClear.6 mph73%29.95 "Hg10 mi
11:20 PM63 °FClear.3 mph73%29.95 "Hg10 mi
10:50 PM63 °FClear.3 mph73%29.98 "Hg10 mi
10:20 PM63 °FClear.2 mph73%29.98 "Hg10 mi
9:50 PM63 °FClear.2 mph73%29.98 "Hg10 mi
9:20 PM64 °FClear.3 mph68%29.98 "Hg10 mi
8:50 PM64 °FClear.5 mph68%29.98 "Hg10 mi
8:20 PM66 °FClear.2 mph64%29.98 "Hg10 mi
7:50 PM66 °FClear.3 mph68%29.95 "Hg10 mi
7:20 PM68 °FClear.5 mph64%29.95 "Hg10 mi
6:50 PM68 °FClear.1 mph64%29.95 "Hg10 mi
6:20 PM70 °FClear.1 mph60%29.95 "Hg10 mi
5:50 PM70 °FClear.1 mph60%29.95 "Hg10 mi
5:20 PM70 °FClear.2 mph60%29.95 "Hg10 mi
4:50 PM72 °FClear.5 mph57%29.95 "Hg10 mi
4:20 PM73 °FSunny.7 mph53%29.95 "Hg10 mi
3:50 PM75 °FSunny.8 mph47%29.95 "Hg10 mi
3:20 PM77 °FSunny.8 mph44%29.92 "Hg10 mi
2:50 PM77 °FSunny.10 mph42%29.95 "Hg10 mi
2:20 PM77 °FSunny.10 mph44%29.92 "Hg10 mi
1:50 PM79 °FSunny.10 mph42%29.95 "Hg10 mi
1:20 PM79 °FSunny.12 mph39%29.95 "Hg10 mi
12:50 PM79 °FSunny.9 mph42%29.95 "Hg10 mi
12:20 PM79 °FSunny.7 mph42%29.95 "Hg10 mi
11:50 AM81 °FSunny.5 mph34%29.95 "Hg10 mi
11:20 AM81 °FSunny.3 mph37%29.98 "Hg10 mi
10:20 AM77 °FSunny.2 mph39%30.01 "Hg10 mi
9:50 AM79 °FSunny.1 mph34%30.01 "Hg10 mi
9:20 AM75 °FSunny.2 mph39%30.01 "Hg10 mi
8:50 AM72 °FSunny.2 mph47%30.01 "Hg10 mi
8:20 AM68 °FSunny.2 mph56%30.01 "Hg10 mi
7:50 AM66 °FSunny.3 mph60%30.01 "Hg10 mi
7:20 AM63 °FSunny.6 mph68%30.01 "Hg10 mi
6:50 AM61 °FSunny.3 mph68%30.01 "Hg10 mi
6:20 AM59 °FSunny.5 mph72%29.98 "Hg10 mi
5:50 AM61 °FClear.2 mph68%29.98 "Hg10 mi
5:20 AM59 °FClear.3 mph72%29.98 "Hg10 mi
4:50 AM61 °FClear.2 mph68%29.98 "Hg10 mi
4:20 AM61 °FClear.5 mph68%29.98 "Hg10 mi
Weather by CustomWeather, © 2014

See weather overviewHow to use our weather pages